Flag for Germany Weather past 2 weeks in Schwäbisch Hall, Baden-Württemberg, Germany

Now
53 °F

Overcast.


Feels Like: 49 °F
Forecast: 39 / 45 °F
Wind: 9 mph from West

Location: Oehringen

Current Time: Dec 19, 2014 at 2:27:28 PM

Latest Report: Dec 19, 2014 at 2:00 PM


Visibility: 44 mi

Pressure: 30.03 "Hg

Humidity: 68%

Dew point: 42 °F

Location of Schwäbisch HallLocation

Historic Weather in Schwäbisch Hall — Graph

°F

Schwäbisch Hall temperature yesterday

Maximum temperature yesterday: 53 °F (at 8:00 PM)
Minimum temperature yesterday: 43 °F (at 12:00 AM)
Average temperature yesterday: 48 °F

Past Weeks' High & Low Weather Summary

 TemperatureHumidityPressure
High53 °F (Dec 18, 8:00 PM)100% (Dec 15, 4:00 AM)30.47 "Hg (Dec 15, 4:00 AM)
Low27 °F (Dec 9, 6:00 AM)57% (Dec 13, 10:00 AM)29.72 "Hg (Dec 12, 6:00 PM)
Average41 °F88%30.07 "Hg
* Reported Dec 4 1:00 PM — Dec 19 1:00 PM, Schwäbisch Hall, Weather by CustomWeather, © 2014

Note: Actual official high and low records may vary slightly from our data, if they occured in-between our weather recording intervals... More about our weather records

Advertising

Schwäbisch Hall weather history for previous 24 hours

 ConditionsComfort  
Time TempWeatherWind HumidityBarometerVisibility
1:00 PM
Dec 19
52 °FOvercast.10 mph69%30.05 "Hg43 mi
12:00 PM52 °FOvercast.7 mph75%30.06 "Hg43 mi
11:00 AM51 °FOvercast.9 mph78%30.08 "Hg40 mi
10:00 AM51 °FOvercast.6 mph80%30.08 "Hg43 mi
9:00 AM50 °FOvercast.6 mph86%30.09 "Hg40 mi
8:00 AM50 °FOvercast.7 mph86%30.09 "Hg43 mi
7:00 AM50 °FOvercast.7 mph83%30.09 "Hg43 mi
6:00 AM51 °FOvercast.9 mph77%30.09 "Hg43 mi
5:00 AM51 °FDrizzle. Overcast.8 mph80%30.10 "Hg7 mi
4:00 AM51 °FOvercast.8 mph77%30.10 "Hg43 mi
3:00 AM51 °FOvercast.9 mph77%30.11 "Hg43 mi
2:00 AM51 °FOvercast.7 mph85%30.12 "Hg43 mi
1:00 AM51 °FOvercast.10 mph90%30.12 "Hg43 mi
12:00 AM51 °FLight freezing rain. Overcast.10 mph93%30.11 "Hg3 mi
11:00 PM
Dec 18
53 °FOvercast.14 mph79%30.08 "Hg43 mi
10:00 PM53 °FLight freezing rain. Overcast.13 mph88%30.08 "Hg7 mi
9:00 PM53 °FDrizzle. Low clouds.13 mph94%30.05 "Hg4 mi
8:00 PM53 °FDrizzle. Overcast.9 mph93%30.05 "Hg25 mi
7:00 PM53 °FDrizzle. Low clouds.7 mph95%30.03 "Hg17 mi
6:00 PM52 °FDrizzle. Low clouds.6 mph97%30.03 "Hg4 mi
5:00 PM51 °FDrizzle. Low clouds.7 mph97%30.01 "Hg4 mi
4:00 PM51 °FDrizzle. Low clouds.6 mph99%30.00 "Hg1 mi
3:00 PM51 °FDrizzle. Low clouds.6 mph97%29.98 "Hg2 mi
2:00 PM50 °FDrizzle. Low clouds.5 mph98%29.98 "Hg3 mi
Weather by CustomWeather, © 2014

See weather overviewHow to use our weather pages